Regional Weather Roundup
Issued by NWS

Home | Current Version | Previous Version | Text Only | Print | Product List | Glossary On
Versions: 1 2 3 4 5 6 7 8 9 10 11 12 13 14 15 16 17 18 19 20 21 22 23 24 25 26 27 28 29 30 31 32 33 34 35 36 37 38 39 40 41 42 43 44 45 46 47 48 49 50
000
ASUS43 KTOP 272108
RWRKS

WEATHER ROUNDUP FOR KANSAS
NATIONAL WEATHER SERVICE GOODLAND KS
400 PM CDT TUE JUN 27 2017

NOTE:  "FAIR" INDICATES FEW OR NO CLOUDS BELOW 12,000 FEET WITH NO
SIGNIFICANT WEATHER AND/OR OBSTRUCTIONS TO VISIBILITY.

KSZ001>006-013>018-027>032-041>047-272200-
NORTHWEST KANSAS

CITY           SKY/WX    TMP DP  RH WIND       PRES   REMARKS
GOODLAND       SUNNY     94  54  25 S20G31    29.76F
HAYS           SUNNY     96  60  30 S20G35    29.79F HX  96
HILL CITY      SUNNY     96  58  27 S20G29    29.77F HX  95
RUSSELL        MOSUNNY   98  58  26 S24G36    29.80F HX  97
$$

KSZ061>065-074>080-084>089-272200-
SOUTHWEST KANSAS

CITY           SKY/WX    TMP DP  RH WIND       PRES   REMARKS
DODGE CITY     SUNNY     93  57  29 S26G33    29.85F
ELKHART          N/A     90  52  27 S17         N/A
GARDEN CITY    SUNNY     96  55  25 S25G38    29.83F
GREAT BEND     PTSUNNY   95  65  37 S22G31    29.83  HX  97
LIBERAL        SUNNY     94  59  31 S24G35    29.87F
PRATT          MOSUNNY   91  62  37 S23G32    29.87F
$$

KSZ066>073-081>083-090>101-272200-
SOUTHEAST KANSAS

CITY           SKY/WX    TMP DP  RH WIND       PRES   REMARKS
CHANUTE        MOSUNNY   86  62  44 SE17G24   29.97F
COFFEYVILLE    MOSUNNY   87  64  46 S14       29.98F
HUTCHINSON     SUNNY     95  63  34 S21G30    29.87F HX  96
MEDICINE LODGE   N/A     94  61  33 S16G29    29.86F
NEWTON         MOSUNNY   87  72  60 S20G26    29.91
PARSONS        MOSUNNY   86  65  49 S10       29.99F
WICHITA INTL   MOSUNNY   91  69  48 S20G32    29.89F HX  96
WICHITA JABRA  SUNNY     86  73  65 S18G32    29.91F
WICHITA MCCONL SUNNY     88  70  55 S18G24    29.91F
WINFIELD       SUNNY     88  71  57 S18G24    29.94F
$$

KSZ007>012-019>026-033>040-048>060-102>105-272200-
NORTHEAST KANSAS

CITY           SKY/WX    TMP DP  RH WIND       PRES   REMARKS
CONCORDIA      SUNNY     84  69  60 SE18      29.86F
EMPORIA        PTSUNNY   83  68  60 SE16G25   29.95F
LAWRENCE       CLOUDY    82  67  60 SE14      29.96F
MANHATTAN      MOSUNNY   84  70  62 S18G26    29.91F
MARYSVILLE     PTSUNNY   81  68  65 SE16G25   29.90F
OLATHE IND     MOSUNNY   80  64  58 SE14      29.99F
OLATHE EXE     CLOUDY    79  66  64 S14G21    29.99F
SALINA         PTSUNNY   93  67  42 SE23G30   29.84F HX  96
TOPEKA BILLARD CLOUDY    79  68  69 S16G24    29.96F
TOPEKA FORBES  MOSUNNY   81  69  67 S15       29.96F
$$




USA.gov is the U.S. government's official web portal to all federal, state and local government web resources and services.